Weather History for Big Piney, WY

Change the Weather History Date:

Sunday, December 15, 2013

  Actual Average Record
Temperature  
Mean Temperature 21 °F 12 °F  
Max Temperature 35 °F 26 °F 45 °F (1998)
Min Temperature 7 °F 0 °F -20 °F (2007)
Degree Days  
Heating Degree Days 44 53  
Month to date heating degree days 856 767  
Since 1 July heating degree days 3321 3582  
Cooling Degree Days 0 0  
Month to date cooling degree days 0 0  
Year to date cooling degree days 89 35  
Moisture  
Dew Point 13 °F    
Average Humidity 72    
Maximum Humidity 92    
Minimum Humidity 51    
Precipitation  
Precipitation 0.00 in 0.01 in 1.05 in (1983)
Month to date precipitation T 0.13  
Year to date precipitation 4.51 6.31  
Sea Level Pressure  
Sea Level Pressure 30.43 in    
Wind  
Wind Speed 4 mph (NNW)    
Max Wind Speed 18 mph    
Max Gust Speed 21 mph    
Visibility 10 miles    
Events      
T = Trace of Precipitation, MM = Missing Value Source: NWS Daily Summary

Daily Weather History Graph

Daily Weather History Graph

Search for Another Location

Airport:

Trip Planner

Search our weather history database for the weather conditions in past years. The results will help you decide how hot, cold, wet, or windy it might be!

Date:

Astronomy

Dec. 15, 2013 Rise Set
Actual Time 7:43 AM MST 4:47 PM MST
Civil Twilight 7:11 AM MST 5:20 PM MST
Nautical Twilight 6:35 AM MST 5:55 PM MST
Astronomical Twilight 6:01 AM MST 6:29 PM MST
Moon 3:56 PM MST (12/15) 6:01 AM MST (12/15)
Length of Visible Light 10h 08m
Length of Day
9h 04m
Waxing Gibbous, 98% of the Moon is Illuminated
Dec 15
Waxing Gibbous
Dec 17
Full
Dec 25
Last Quarter
Jan 1
New
Jan 7
First Quarter

Hourly Weather History & Observations

Time (MST) Temp. Windchill Dew Point Humidity Pressure Visibility Wind Dir Wind Speed Gust Speed Precip Events Conditions
12:53 AM 21.0 °F 14.6 °F 14.0 °F 74% 30.38 in 10.0 mi Variable 4.6 mph - N/A   Clear
1:53 AM 15.1 °F 9.4 °F 10.0 °F 80% 30.40 in 10.0 mi Variable 3.5 mph - N/A   Clear
2:53 AM 12.9 °F - 8.1 °F 81% 30.43 in 10.0 mi Calm Calm - N/A   Clear
3:53 AM 12.9 °F 3.8 °F 9.0 °F 84% 30.45 in 10.0 mi WSW 5.8 mph - N/A   Clear
4:53 AM 10.0 °F 1.8 °F 6.1 °F 84% 30.46 in 10.0 mi South 4.6 mph - N/A   Clear
5:53 AM 8.1 °F -3.2 °F 6.1 °F 92% 30.47 in 10.0 mi SSE 6.9 mph - N/A   Clear
6:53 AM 10.0 °F 3.6 °F 7.0 °F 87% 30.45 in 10.0 mi North 3.5 mph - N/A   Clear
7:53 AM 10.9 °F - 8.1 °F 88% 30.48 in 10.0 mi Calm Calm - N/A   Clear
8:53 AM 14.0 °F 5.1 °F 10.9 °F 88% 30.51 in 10.0 mi NW 5.8 mph - N/A   Clear
9:53 AM 23.0 °F 17.0 °F 17.1 °F 78% 30.47 in 10.0 mi NNW 4.6 mph - N/A   Clear
10:53 AM 27.0 °F - 18.0 °F 69% 30.47 in 10.0 mi Calm Calm - N/A   Clear
11:53 AM 30.9 °F - 17.1 °F 57% 30.45 in 10.0 mi Calm Calm - N/A   Clear
12:53 PM 30.9 °F 27.5 °F 18.0 °F 59% 30.38 in 10.0 mi South 3.5 mph - N/A   Clear
1:53 PM 34.0 °F - 18.0 °F 52% 30.38 in 10.0 mi Calm Calm - N/A   Clear
2:53 PM 34.0 °F - 19.0 °F 54% 30.38 in 10.0 mi Calm Calm - N/A   Clear
3:53 PM 34.0 °F - 19.0 °F 54% 30.37 in 10.0 mi Calm Calm - N/A   Clear
4:53 PM 25.0 °F 18.1 °F 16.0 °F 69% 30.45 in 10.0 mi East 5.8 mph - N/A   Clear
5:53 PM 24.1 °F 16.0 °F 12.0 °F 60% 30.45 in 10.0 mi North 6.9 mph - N/A   Clear
6:53 PM 18.0 °F 9.8 °F 12.0 °F 78% 30.47 in 10.0 mi NE 5.8 mph - N/A   Clear
7:53 PM 25.0 °F 11.3 °F 12.9 °F 60% 30.44 in 10.0 mi NNE 18.4 mph - N/A   Clear
8:53 PM 24.1 °F 17.0 °F 12.0 °F 60% 30.44 in 10.0 mi Variable 5.8 mph - N/A   Clear
9:53 PM 25.0 °F 17.1 °F 10.9 °F 55% 30.39 in 10.0 mi Variable 6.9 mph - N/A   Clear
10:53 PM 23.0 °F 18.4 °F 10.9 °F 60% 30.40 in 10.0 mi West 3.5 mph - N/A   Clear
11:53 PM 19.0 °F - 8.1 °F 62% 30.40 in 10.0 mi Calm Calm - N/A   Clear